Wind_Speed
36 36 35 34 33 33 33 33 33 31 29 28 28 27 27 27 26 25 24 24 24 24 24 24 23 23 23 23 23 23 23 23 22 21 21 20 19 19 20 21 21 20 20 19 18 18 19 19 18 17 16 15 15 14 14 14 14 13 13 13 13 13 12 11 9 7 7 8 7 6 7 8 9 9 10 9 8 10 10 11 12 13 13 12 12
37 36 35 35 35 34 34 33 33 32 31 30 29 28 27 27 27 26 25 25 25 25 25 25 24 24 23 23 23 23 23 23 22 22 22 21 20 20 20 22 22 22 22 21 20 19 19 20 20 19 18 17 16 15 15 15 15 15 14 14 14 14 14 13 11 9 9 9 9 7 6 8 9 10 11 11 10 10 11 12 12 12 12 12 11
37 36 35 35 35 35 34 33 33 33 32 31 31 30 28 28 28 28 27 26 26 26 26 25 25 25 25 23 23 23 24 24 23 23 23 23 22 22 21 22 23 24 24 23 22 21 20 21 22 21 19 19 18 17 16 16 16 16 16 16 15 14 15 15 13 10 10 10 10 9 8 9 10 10 11 12 11 12 12 12 12 12 12 12 12
36 35 35 35 35 35 34 34 33 34 34 33 33 32 30 29 29 29 29 28 27 27 26 26 26 26 26 25 24 25 25 25 25 24 24 24 24 23 23 23 24 24 24 24 24 24 23 22 23 22 21 20 19 18 17 17 17 17 17 16 16 15 15 16 15 12 10 10 10 11 10 10 11 10 11 11 12 12 13 13 13 13 13 13 12
35 35 35 35 35 35 36 35 35 36 36 35 35 34 33 31 30 30 30 30 29 27 27 27 27 27 27 27 26 26 26 26 26 26 25 25 25 24 24 24 24 24 25 25 25 25 24 24 23 23 23 22 21 20 20 19 19 18 17 17 17 16 15 15 16 14 12 11 11 11 10 10 11 11 11 12 12 12 13 13 13 13 13 13 13
34 34 34 34 35 36 36 36 36 37 37 36 35 35 35 33 31 31 31 31 30 29 28 28 29 29 29 29 28 28 28 27 28 27 26 25 26 25 25 25 25 25 25 25 25 26 26 25 24 25 25 24 23 22 21 21 20 19 19 18 17 17 16 16 15 15 14 12 11 12 11 11 12 12 13 13 12 12 12 13 13 13 14 13 13
34 34 33 33 34 35 36 36 36 36 37 36 35 35 35 35 33 31 31 31 31 31 30 30 30 30 30 29 29 29 29 29 28 28 28 26 26 26 26 26 25 25 26 26 26 26 27 27 26 26 27 26 25 24 23 23 22 21 20 19 18 18 17 16 16 15 15 14 13 12 13 13 12 12 12 13 13 12 12 12 12 12 13 13 14
33 34 33 32 33 34 35 35 36 36 36 36 35 35 35 35 34 32 31 30 31 31 31 31 30 29 29 29 30 29 30 29 29 29 29 28 28 27 27 27 26 26 26 26 27 27 27 27 27 27 28 28 27 26 25 25 23 22 21 20 19 18 18 17 17 16 15 15 14 13 13 13 13 12 12 13 14 14 13 12 12 11 11 13 14
33 33 32 32 33 33 33 32 33 35 34 34 35 34 34 34 33 32 31 30 30 30 30 30 30 29 29 29 29 30 30 30 30 31 30 30 29 28 28 28 27 27 27 27 27 27 27 27 27 27 29 30 30 29 27 26 25 23 23 22 21 20 19 18 17 17 16 15 15 14 13 14 14 13 13 14 15 13 12 12 12 11 11 12 13
32 32 32 33 32 31 32 31 30 32 33 34 34 33 33 32 32 33 32 30 29 29 29 29 29 29 30 30 30 30 30 31 33 34 34 32 30 29 28 28 27 27 27 27 28 28 28 27 27 28 29 31 32 32 29 29 28 25 24 24 24 22 20 19 18 18 17 16 15 15 14 14 15 15 15 15 14 13 12 12 11 11 10 10 10
31 32 32 31 30 30 31 31 30 30 32 32 31 31 31 31 31 33 32 30 29 28 28 29 29 29 29 30 30 31 31 32 35 38 38 36 33 30 28 28 28 28 28 28 28 28 28 28 27 27 30 32 34 34 33 31 31 29 26 26 26 25 23 21 20 19 18 16 16 16 16 15 15 16 16 15 14 14 13 12 11 10 10 10 9
30 31 31 29 28 29 30 30 30 30 30 31 30 29 30 29 29 29 30 31 30 28 28 30 30 30 29 30 31 31 31 32 36 40 41 42 39 33 28 28 28 28 28 29 29 28 28 28 27 26 28 32 34 35 35 34 33 33 31 28 28 28 26 24 22 20 19 18 17 17 16 16 16 16 16 15 15 14 13 13 12 11 10 10 9
29 30 30 29 29 30 30 30 30 30 30 30 29 28 28 29 29 29 29 30 30 30 30 31 31 31 30 30 30 31 30 32 36 40 42 44 44 39 31 28 28 28 28 29 30 29 28 27 27 26 26 31 34 34 36 37 36 35 34 32 30 30 30 27 25 22 20 19 18 18 17 16 16 16 16 15 15 15 14 13 12 12 11 11 10
27 28 30 30 30 30 29 30 30 29 29 29 29 28 29 31 31 30 30 30 31 32 31 31 32 32 32 31 30 31 31 32 35 40 43 44 46 45 37 30 28 30 30 31 32 31 29 28 28 28 27 30 35 34 34 37 38 37 37 35 32 31 32 31 29 27 24 21 18 18 18 17 16 16 16 16 16 15 15 14 13 12 12 10 9
26 26 28 30 30 29 29 30 29 29 29 29 30 31 32 33 33 32 30 30 32 32 31 31 32 32 32 31 30 30 31 32 34 38 42 44 46 48 43 35 31 31 31 33 34 32 31 30 30 30 29 31 36 37 32 32 35 38 37 35 32 30 31 33 32 30 29 25 21 19 18 18 17 15 15 16 16 15 14 12 11 11 10 8 7
25 26 28 30 30 29 28 28 28 28 29 30 32 32 33 32 32 31 29 29 29 30 30 31 31 31 33 33 32 32 32 33 36 38 41 44 45 48 47 39 33 32 31 33 34 32 31 32 31 32 31 31 36 39 36 31 30 33 34 33 31 29 29 32 33 32 30 27 24 21 18 18 19 18 16 16 17 15 12 10 9 8 7 6 7
27 26 27 28 29 28 27 27 27 28 28 30 31 31 31 30 29 29 29 29 29 30 30 30 30 31 33 33 34 33 32 34 37 37 39 43 44 48 49 41 34 33 32 32 33 33 34 35 34 32 32 33 36 40 40 35 29 29 31 30 29 29 27 28 31 33 32 29 26 25 22 20 20 20 20 19 18 15 12 11 11 10 9 8 8
28 27 26 27 28 28 27 27 27 28 28 30 30 29 29 28 28 29 29 29 29 29 28 28 29 30 32 33 33 33 31 32 35 37 39 41 43 48 48 40 34 34 32 32 33 33 34 37 37 35 32 33 37 39 41 39 31 28 29 28 27 27 27 25 26 30 32 31 28 27 25 22 20 20 22 22 20 17 14 13 12 12 12 13 11
27 27 26 26 27 27 28 28 28 28 29 29 28 28 27 27 26 27 28 28 28 27 26 27 28 28 30 31 33 34 33 32 34 37 39 40 43 48 44 36 34 35 33 33 34 33 34 36 39 40 36 34 37 40 42 42 36 30 28 28 26 27 27 25 24 27 32 32 28 26 25 23 20 20 23 23 21 19 15 14 13 13 13 12 10
23 25 25 25 25 27 27 28 28 28 28 27 26 25 25 25 25 26 26 26 26 26 27 27 27 27 28 29 32 35 35 34 35 37 40 40 43 47 42 35 35 36 33 34 35 34 34 35 39 44 43 37 38 41 43 44 41 33 29 28 27 27 27 25 25 28 31 30 27 25 24 23 20 19 21 23 22 20 17 15 14 13 12 11 9
21 22 24 25 25 25 26 26 27 26 25 25 24 24 24 24 25 25 25 24 24 25 26 26 26 26 27 27 29 32 34 35 35 37 40 41 44 47 44 37 37 36 34 34 34 35 36 36 38 45 48 45 42 42 43 45 43 37 32 32 31 28 26 25 26 28 29 26 25 23 22 22 20 19 19 20 20 20 19 18 16 15 13 12 11
20 20 22 24 24 24 24 24 24 24 24 24 24 24 24 23 24 25 24 23 24 24 24 25 25 25 26 26 28 29 31 33 35 36 39 41 44 48 47 42 38 37 35 35 35 35 37 38 38 42 47 50 49 45 42 44 45 41 36 35 33 29 28 26 26 28 27 25 24 24 24 24 24 23 21 20 19 20 20 19 18 17 15 13 11
17 19 20 21 22 22 22 23 23 22 22 23 23 22 22 22 22 23 22 22 22 23 23 23 23 24 24 25 26 28 29 31 34 37 39 40 42 47 49 47 43 40 39 38 37 35 35 38 39 40 45 51 53 48 44 44 46 45 40 36 33 32 30 27 27 29 28 26 26 27 28 28 27 27 26 23 21 22 21 20 20 18 16 14 11
13 15 17 18 19 19 19 20 21 20 20 21 21 21 21 21 21 21 21 21 20 21 22 23 23 23 23 24 26 26 27 28 31 35 39 41 43 45 48 50 48 45 43 42 38 34 34 37 39 38 41 50 55 52 47 46 47 46 43 38 35 34 31 29 31 33 30 27 28 28 29 30 30 29 29 28 25 24 23 21 20 19 16 14 11
11 12 13 14 15 16 16 17 18 17 17 18 19 19 19 20 19 19 20 21 20 21 21 22 22 22 23 24 25 25 25 26 28 31 36 40 43 45 47 50 51 50 48 44 41 38 35 35 36 37 41 47 53 52 50 48 48 47 45 41 38 38 34 31 35 37 30 26 28 27 26 29 29 28 29 28 25 25 25 22 20 19 17 14 12
9 10 11 11 12 14 14 15 16 16 16 16 17 18 18 19 19 19 20 20 20 20 20 20 21 22 22 23 24 24 25 26 27 29 31 37 42 45 46 49 50 51 52 48 43 41 38 34 32 33 37 44 49 51 51 49 48 48 47 44 42 41 37 34 38 40 32 26 28 28 27 28 26 24 26 26 24 25 27 24 21 19 17 15 14
7 8 9 9 10 11 12 12 13 14 15 14 15 15 17 17 17 17 19 19 19 19 19 19 19 20 21 22 22 22 23 24 26 27 26 29 36 41 45 47 48 51 54 54 50 45 41 36 33 31 33 41 47 48 49 50 49 50 50 47 43 40 38 37 41 42 36 30 30 29 28 26 24 22 24 24 23 25 27 24 21 20 18 16 15
6 6 6 6 7 8 9 10 10 11 13 14 14 14 15 17 17 18 18 18 17 17 18 19 20 20 20 20 19 20 22 23 25 26 24 22 26 33 40 44 47 51 53 55 55 48 37 30 26 23 25 37 43 42 42 45 47 50 51 48 42 37 37 38 38 37 35 32 30 28 26 26 24 24 26 24 22 24 26 24 21 20 18 17 16
5 6 6 6 7 7 7 8 9 9 10 11 12 13 13 14 13 14 16 16 17 17 16 16 17 18 18 19 19 18 20 21 21 22 22 21 22 27 33 38 44 49 52 54 54 46 33 28 27 22 24 34 40 39 38 42 46 48 49 45 38 35 38 39 37 35 33 31 29 28 28 27 25 24 26 25 23 24 26 24 22 20 19 18 17
4 6 5 3 3 5 7 9 9 8 9 9 11 12 13 13 10 9 10 11 13 14 13 12 13 13 14 17 19 19 20 21 21 21 20 20 20 22 28 34 39 43 47 51 50 40 30 30 33 31 30 33 33 33 35 39 43 44 44 42 38 37 39 41 38 35 34 33 32 31 30 29 28 26 26 26 26 25 25 25 22 20 18 17 16
3 3 3 6 8 5 0 2 4 3 2 2 3 5 6 7 7 7 8 8 8 10 12 14 16 17 18 20 23 26 27 28 29 30 29 27 26 25 26 30 36 40 44 47 45 39 32 31 31 32 33 31 29 30 33 35 37 38 39 40 39 39 41 41 40 38 36 35 34 32 31 29 28 27 28 27 26 25 24 24 22 19 17 17 16
6 6 5 7 9 8 6 6 6 3 3 4 4 5 4 3 2 3 5 8 10 11 12 13 15 18 20 22 24 27 30 31 32 33 33 33 32 32 30 28 30 36 42 44 41 37 37 36 34 34 35 33 33 36 38 38 38 39 39 39 38 39 42 44 44 42 39 37 35 35 35 32 29 28 29 29 27 25 24 24 22 19 18 17 16
7 7 6 6 7 6 5 5 5 3 1 1 2 2 3 3 3 1 2 4 7 8 8 9 9 11 13 15 16 18 21 25 28 31 33 33 33 33 34 33 31 31 36 41 39 34 36 38 37 36 37 37 39 42 42 41 43 43 41 41 41 40 42 45 46 44 40 39 39 40 37 34 32 31 31 30 29 27 25 24 22 20 19 18 17
9 8 8 7 6 6 6 5 5 4 4 3 2 2 2 1 1 1 2 2 3 4 4 4 6 8 10 11 12 13 14 16 18 21 23 26 27 28 30 34 34 31 31 38 40 36 35 36 38 39 41 42 45 45 43 42 44 45 44 45 44 42 40 42 44 43 40 39 40 39 35 33 32 32 31 29 29 27 24 24 23 21 20 19 17
9 9 8 7 7 6 6 6 6 5 5 4 4 4 4 3 3 3 2 3 3 3 3 4 6 9 12 13 14 15 17 18 19 20 21 22 23 25 26 26 27 27 28 34 40 40 38 37 38 40 43 45 46 48 47 46 47 48 48 46 44 42 41 42 42 41 41 40 38 36 34 32 32 32 31 28 27 25 23 22 23 21 20 19 17
8 8 8 7 7 7 7 7 6 6 5 5 5 5 4 3 3 3 3 3 4 4 3 4 5 7 9 11 14 17 20 21 21 22 23 23 23 24 23 20 20 22 24 29 36 39 40 41 41 42 45 48 49 50 51 50 49 49 50 50 47 45 46 45 43 41 41 40 37 35 34 32 31 32 30 27 25 24 22 21 21 22 21 19 17
7 7 7 7 6 6 7 7 7 5 5 4 4 3 3 3 3 3 3 5 4 4 4 4 5 5 6 10 15 19 21 22 21 21 22 22 21 21 21 20 20 21 23 27 31 34 38 42 43 42 45 50 52 52 52 50 49 49 51 51 50 49 49 47 44 42 41 39 37 36 35 33 32 33 31 27 25 25 23 22 22 21 20 19 17
9 8 7 7 6 5 5 5 4 4 3 4 4 4 3 4 5 4 4 4 4 4 5 5 6 6 7 10 15 19 21 21 20 18 19 20 18 18 20 22 23 23 24 27 29 31 35 40 43 44 44 46 49 50 49 48 48 49 50 48 46 47 48 46 44 42 41 38 37 37 36 34 34 33 31 28 26 24 23 23 22 19 18 19 18
12 10 7 6 5 5 4 4 3 3 3 3 4 4 5 6 6 5 5 5 5 5 6 6 6 7 7 10 14 17 17 17 17 17 18 19 18 19 23 27 29 31 32 31 29 30 34 38 41 43 43 43 44 46 45 45 46 46 45 42 41 43 46 46 43 41 41 38 36 36 35 33 33 33 30 26 24 24 24 22 20 18 17 18 19
9 9 7 6 5 3 4 5 4 4 5 5 4 4 5 5 4 4 5 5 6 6 7 8 7 7 7 10 15 15 13 13 15 16 17 19 20 22 26 28 30 31 32 30 28 30 33 35 38 40 40 39 40 40 39 40 43 44 43 43 42 43 46 46 44 41 41 39 36 35 35 32 31 31 29 25 22 23 22 20 18 18 17 17 18
8 7 6 9 10 6 4 5 6 5 5 6 5 5 5 5 6 6 6 6 6 7 7 8 8 8 9 12 15 14 12 13 14 15 16 18 19 22 26 27 27 27 26 25 28 31 32 32 32 35 37 36 36 39 40 41 41 41 42 44 44 43 44 45 44 42 40 38 35 34 34 32 29 28 27 24 21 20 19 18 18 18 17 16 17
9 8 7 9 11 9 7 6 6 5 5 6 7 7 7 7 7 8 8 8 8 8 8 8 8 9 10 11 11 12 12 12 14 15 17 18 19 20 24 26 27 26 24 20 20 24 29 31 30 29 31 35 34 32 34 38 42 43 43 44 44 44 42 42 43 42 39 37 34 32 31 29 27 25 25 23 20 19 20 19 18 18 17 17 17
8 10 10 10 10 10 9 8 7 7 7 8 7 7 7 7 7 8 8 9 9 9 10 10 10 10 10 9 9 11 13 13 14 15 17 18 18 18 20 23 24 22 20 18 18 18 11 12 12 9 15 29 37 37 33 32 35 39 42 43 45 46 44 42 42 41 38 35 34 31 27 25 25 24 22 21 20 19 20 20 19 18 18 17 16
8 9 10 10 9 9 10 9 9 9 10 10 9 9 9 9 8 8 9 10 9 9 10 10 10 11 11 10 10 12 12 12 14 15 15 17 17 17 18 21 20 17 16 17 22 28 27 21 21 23 18 14 24 35 35 30 27 31 36 38 39 41 42 40 40 38 36 34 33 30 26 24 24 23 22 22 21 19 19 19 19 18 17 17 16
10 10 10 10 10 11 11 11 10 11 11 11 11 12 12 12 12 11 11 11 11 10 10 11 11 11 11 11 13 13 13 12 13 14 14 15 15 15 17 19 18 16 15 16 19 25 30 31 31 31 31 31 31 34 36 35 34 36 39 39 38 39 39 38 37 35 34 33 32 29 26 25 24 23 22 22 21 20 19 19 18 17 17 16 16
11 10 9 10 11 11 11 11 12 13 13 13 13 14 14 13 13 13 14 14 14 12 11 12 13 13 13 13 14 15 15 14 14 14 13 13 14 14 14 15 16 15 13 13 14 17 22 27 29 31 33 34 34 34 35 36 35 36 38 41 41 40 39 39 37 35 33 32 31 28 26 25 24 23 22 22 21 19 18 17 17 17 16 16 16
11 10 10 11 12 12 12 13 14 14 14 14 14 14 14 14 14 14 14 15 15 14 13 13 14 15 15 15 15 15 15 14 14 13 12 11 12 13 13 12 12 12 11 11 11 13 17 20 24 29 32 34 34 34 34 35 36 36 36 39 41 40 39 38 37 34 32 31 30 28 26 25 24 22 22 21 20 18 17 16 16 17 16 16 15
13 13 13 13 13 13 14 14 15 15 15 14 14 15 15 15 16 16 16 16 15 14 14 14 15 15 16 15 15 14 13 13 13 12 10 10 10 11 12 12 11 10 9 9 9 13 16 18 21 25 29 31 32 31 31 32 34 35 35 37 39 39 38 36 35 32 30 29 28 26 25 24 23 21 21 20 18 17 16 15 15 15 16 16 15
16 16 15 15 15 15 15 15 15 15 15 15 15 15 16 16 17 17 17 17 16 16 16 16 16 17 17 17 16 15 14 12 12 11 10 11 12 11 11 11 11 10 10 11 11 11 15 17 19 22 25 27 29 29 30 32 34 34 34 34 35 35 35 34 33 31 29 28 26 25 24 23 21 20 20 19 16 15 15 15 14 14 14 14 15
18 18 17 17 17 17 16 17 17 17 16 16 16 16 16 16 17 17 18 18 18 18 19 18 18 19 19 20 20 20 17 14 13 12 10 11 12 13 12 12 11 10 10 12 12 11 12 15 16 18 21 23 25 27 29 31 31 31 31 32 32 33 33 32 31 30 28 26 24 22 22 21 19 18 18 17 16 13 13 13 13 14 13 13 14
19 19 19 19 18 17 17 17 17 17 18 18 17 17 17 16 16 17 18 19 19 20 21 21 21 20 20 21 23 23 21 18 18 18 16 14 14 15 14 14 13 11 9 10 11 11 11 12 14 15 17 18 19 20 22 23 25 27 29 30 31 31 31 30 30 28 26 23 21 20 19 18 17 17 16 16 16 15 13 12 12 13 13 14 14
Wind_Direction
190 191 194 195 195 196 197 198 199 200 202 203 206 207 207 207 210 209 208 209 209 208 209 208 207 206 205 206 206 205 204 202 200 200 204 207 208 209 207 204 204 209 213 212 209 208 206 205 205 204 204 204 204 205 205 201 201 205 204 201 203 205 204 210 223 222 212 222 236 234 216 200 196 205 210 205 211 220 215 213 223 228 229 232 235
192 192 192 194 195 196 197 198 198 199 201 202 204 205 205 207 208 207 207 208 208 208 208 208 207 207 207 207 206 205 204 203 201 201 203 206 208 210 208 204 203 207 212 213 212 209 206 204 203 202 203 205 204 205 204 202 202 204 205 204 204 205 203 205 214 222 218 213 220 232 217 204 209 208 209 212 209 213 216 216 221 227 229 232 238
193 192 191 193 194 195 196 197 198 199 201 203 205 206 206 207 207 207 207 208 208 208 209 208 207 206 207 207 206 205 204 203 203 203 203 204 207 211 211 208 206 208 211 211 212 211 208 205 203 200 201 204 205 206 205 203 204 205 205 205 206 206 203 204 209 217 223 212 205 216 215 210 220 214 208 217 216 211 216 219 221 226 232 237 244
194 192 191 193 194 194 195 197 198 200 202 205 207 208 208 207 207 207 207 208 209 209 208 208 207 205 206 207 206 205 204 202 204 205 204 204 206 209 213 212 210 210 210 209 209 211 209 206 204 201 199 201 203 205 207 205 204 206 207 205 206 208 203 203 208 213 223 217 203 214 221 208 211 215 209 213 217 214 217 222 225 230 235 240 246
195 193 193 194 194 194 195 197 199 201 203 206 208 209 209 208 208 207 207 209 211 209 207 206 205 204 204 206 205 205 204 203 203 205 206 205 204 207 212 214 213 211 210 209 208 209 208 207 205 201 199 200 201 202 205 206 205 205 206 204 203 207 204 202 205 209 217 221 208 211 218 204 202 211 209 209 214 217 220 226 230 233 236 242 250
196 194 194 194 194 195 196 198 200 201 203 206 207 208 208 209 209 209 208 209 210 210 207 205 205 204 204 205 205 204 204 204 203 204 206 206 205 207 210 214 215 213 211 211 210 209 208 208 206 203 200 200 200 201 202 203 205 205 205 205 202 203 205 203 202 205 212 220 214 206 206 204 204 207 207 210 213 217 223 230 232 234 236 241 251
196 195 195 195 195 196 197 198 200 201 203 205 207 207 209 210 211 211 209 208 209 209 207 205 205 205 204 204 205 204 204 204 205 204 206 207 207 207 208 211 214 215 213 213 212 211 210 209 207 205 203 202 200 200 199 200 204 206 205 205 202 201 204 204 203 204 208 214 217 211 206 205 207 209 209 211 217 223 226 227 229 230 228 233 244
197 195 195 195 196 197 198 198 198 201 203 205 206 208 209 210 211 210 209 207 208 208 207 205 204 204 205 205 205 204 204 204 205 204 205 207 208 208 208 209 212 214 215 215 215 214 213 211 210 208 205 204 203 200 199 198 200 203 204 204 203 202 203 204 204 205 207 211 214 213 208 204 206 210 209 206 214 223 223 226 235 233 226 232 243
198 196 195 195 197 197 198 197 198 200 202 204 206 207 207 208 209 209 208 207 207 208 208 206 203 203 204 205 205 205 205 205 205 205 205 205 207 209 210 209 210 213 216 217 217 217 216 214 214 213 210 208 206 204 202 199 199 200 201 201 202 203 203 204 204 205 207 211 213 213 209 205 204 207 207 206 211 218 221 227 236 237 236 242 245
197 198 197 197 196 194 195 197 197 198 201 203 204 204 205 205 206 208 208 207 207 207 208 209 207 205 204 205 205 206 207 208 208 208 208 206 206 208 210 211 211 214 216 217 219 219 218 218 218 217 215 212 210 209 206 204 203 202 200 200 200 200 202 205 205 206 207 210 213 212 209 208 206 205 208 211 213 217 220 223 227 234 242 247 245
197 199 200 198 194 191 193 195 195 196 199 201 201 201 202 203 204 207 208 208 208 207 207 209 210 209 208 207 207 208 210 211 211 211 211 210 207 206 209 211 212 214 216 217 219 219 218 219 220 219 218 214 212 211 210 209 208 207 204 203 203 201 202 204 206 206 207 211 214 214 213 212 210 208 209 212 213 216 218 217 220 230 236 239 244
199 199 200 198 193 192 191 191 192 194 195 197 198 198 199 201 203 205 207 207 207 206 207 209 210 211 211 211 212 212 213 214 213 212 212 213 211 208 209 211 212 214 216 217 219 219 216 216 218 218 217 215 212 213 214 213 212 211 209 206 207 207 207 207 207 206 208 212 215 217 217 215 212 211 211 210 209 212 217 218 221 226 230 235 244
201 198 199 198 194 193 190 188 191 193 192 193 195 195 197 200 202 204 205 205 205 206 207 208 209 211 212 213 215 216 217 217 215 214 214 214 214 211 210 212 212 213 216 218 218 217 214 213 214 213 214 213 210 210 214 214 214 214 213 210 209 212 213 212 210 209 210 213 217 219 218 217 216 214 211 208 205 205 210 216 220 224 227 233 244
202 196 196 198 196 193 190 189 191 192 190 189 190 192 196 200 202 203 204 204 205 207 207 208 209 210 212 214 216 218 220 220 217 216 215 216 216 213 211 212 214 214 216 219 220 218 213 210 209 209 210 210 207 205 208 211 213 214 214 212 211 213 216 216 215 213 212 214 219 220 219 218 218 215 209 206 205 204 203 208 218 225 228 231 242
203 194 194 198 198 194 192 190 190 190 188 187 189 193 197 199 201 202 203 204 206 207 208 208 209 210 212 214 217 220 223 223 221 218 217 217 217 215 213 212 215 217 218 220 222 221 215 210 208 206 205 206 206 204 202 203 208 210 211 211 212 213 215 217 216 215 215 216 219 220 221 220 218 214 209 205 204 204 201 206 220 225 223 229 237
204 197 194 197 198 195 193 191 190 189 188 188 192 196 198 200 200 201 203 206 208 208 209 210 210 211 211 212 217 223 225 224 223 220 217 217 217 215 213 213 215 218 218 218 219 220 219 215 210 206 204 204 206 207 204 200 200 203 205 208 211 214 216 217 217 216 216 217 219 221 223 222 217 213 210 204 199 199 197 199 208 206 208 230 240
204 201 195 196 198 197 195 193 192 191 190 192 196 198 199 200 199 199 203 206 208 209 210 212 212 212 213 214 217 222 225 225 225 224 219 217 215 214 213 213 216 219 219 219 218 219 221 220 217 210 205 204 208 209 206 201 196 197 201 204 208 212 215 216 217 218 218 216 218 221 223 225 221 213 208 201 192 190 192 194 200 202 201 211 226
204 203 198 196 197 197 197 196 195 194 194 196 199 200 200 200 199 200 203 207 210 211 211 213 215 216 218 218 217 220 224 225 226 226 223 217 215 214 213 212 215 219 220 221 222 220 221 222 220 215 207 205 209 210 207 202 197 195 198 200 203 209 211 210 211 214 216 216 218 220 222 226 225 213 206 202 194 191 194 197 204 209 208 213 227
204 203 201 198 198 198 198 199 198 198 199 200 201 201 200 202 201 202 205 209 212 213 213 215 218 218 220 221 219 220 223 225 226 226 223 219 216 214 212 211 216 219 219 224 225 223 222 221 221 219 213 208 209 210 207 203 199 196 197 197 201 206 206 204 203 202 205 208 212 215 218 221 219 208 204 205 203 202 203 206 213 219 225 236 245
205 204 202 200 199 198 199 200 200 200 201 201 202 202 202 204 204 204 207 210 211 214 216 218 220 220 220 222 222 222 223 224 225 224 223 221 218 214 210 212 218 219 219 224 227 227 225 222 222 221 217 212 211 209 208 206 202 196 194 196 203 205 200 200 203 198 193 196 201 205 209 208 204 199 201 205 207 208 208 211 217 222 226 233 234
204 205 203 202 202 200 200 202 201 201 202 201 202 205 205 205 205 205 207 210 211 213 216 218 221 223 222 222 223 224 224 224 225 225 224 222 219 215 211 213 219 220 221 224 227 229 228 224 223 222 216 213 213 210 208 208 205 199 196 200 207 207 198 197 201 194 185 185 191 194 196 197 197 198 199 201 204 205 206 209 215 219 219 219 221
204 205 204 204 205 204 202 202 201 200 201 202 203 205 206 206 206 207 209 211 212 214 215 217 221 224 225 225 225 226 226 224 224 226 226 224 221 217 214 216 219 221 224 226 226 227 228 225 224 223 216 213 215 212 207 207 206 203 202 204 205 204 198 194 191 182 176 179 187 192 196 199 203 205 201 196 199 203 204 206 210 213 215 216 221
203 205 206 206 207 207 204 201 199 199 201 203 203 203 204 205 207 207 209 211 213 214 215 217 222 226 228 229 228 229 229 227 225 226 228 227 224 221 220 220 219 219 224 230 229 226 225 225 225 225 218 214 213 211 207 206 206 205 205 202 200 199 197 191 183 175 172 176 186 194 198 199 201 203 197 190 193 200 201 202 205 207 209 209 210
203 203 205 205 207 208 205 201 200 200 201 201 201 202 204 205 207 207 207 211 215 217 218 221 226 230 233 235 235 234 234 233 230 229 230 230 229 226 224 223 221 220 224 230 232 230 227 225 225 225 221 215 213 212 209 206 206 206 204 200 196 194 192 188 184 180 176 179 189 195 197 197 199 200 195 190 191 194 196 198 199 198 201 203 200
196 199 202 201 204 207 205 203 204 204 201 199 200 202 203 205 206 206 209 214 220 223 225 226 229 233 237 240 241 240 239 238 236 235 234 233 232 230 229 227 224 223 224 229 232 234 235 231 227 226 222 215 212 211 209 207 207 206 203 199 196 193 190 188 186 183 179 182 190 196 198 199 199 199 198 195 190 186 187 193 194 190 191 198 200
190 201 204 199 200 203 204 205 205 204 203 202 203 205 207 209 209 210 215 221 224 226 229 231 231 233 237 241 244 245 244 242 240 240 240 237 234 233 231 230 228 226 227 231 233 234 238 240 240 235 225 215 210 209 208 208 207 205 202 199 196 192 190 186 183 182 182 183 190 196 199 197 196 199 199 194 184 179 182 187 187 185 187 192 196
188 201 204 200 197 198 202 206 205 203 205 206 207 208 212 216 217 216 219 223 225 225 228 231 234 237 240 243 244 245 246 246 244 244 241 235 233 232 230 230 228 226 227 230 232 234 236 241 249 248 230 215 211 210 208 207 205 202 201 199 195 192 191 187 183 183 185 186 189 195 196 190 189 193 191 184 179 179 182 184 183 183 188 193 196
173 177 185 193 192 193 201 207 209 209 208 207 211 212 212 217 220 221 223 226 228 229 230 232 236 240 243 247 248 247 248 249 249 249 249 241 233 229 227 227 227 225 227 229 231 233 234 236 245 246 221 207 204 203 203 203 201 199 198 196 194 192 191 189 186 186 187 187 187 189 187 183 185 183 178 177 178 180 182 185 185 185 188 192 197
155 150 162 178 182 185 196 203 208 217 215 210 213 216 216 219 220 220 223 227 230 236 241 240 238 240 244 248 250 250 251 252 255 258 259 256 247 236 232 232 229 228 230 232 230 229 227 226 229 225 209 200 197 194 196 198 198 198 197 194 192 190 188 187 186 186 186 183 181 180 179 181 183 176 171 175 181 182 184 188 188 188 192 196 199
148 148 153 155 152 174 194 196 193 205 217 215 214 218 223 228 229 227 230 234 238 247 258 265 267 272 277 273 269 270 273 276 284 290 287 284 278 262 250 246 240 237 236 234 229 225 223 224 223 216 208 204 197 190 192 194 195 196 197 195 193 190 186 185 184 184 183 180 178 177 178 182 182 173 170 178 183 182 185 189 189 192 198 201 202
96 105 76 30 30 40 146 182 148 161 231 262 250 242 237 233 235 245 257 270 275 272 274 279 279 283 294 298 294 291 290 292 295 297 298 298 297 290 276 261 251 247 242 233 224 218 218 221 221 214 209 207 202 195 194 193 194 197 198 197 196 191 185 184 183 182 180 179 179 179 178 178 175 169 170 178 182 182 183 185 188 195 203 206 207
76 72 62 40 36 36 25 25 42 44 354 348 348 341 335 311 265 264 276 288 294 292 291 292 287 283 288 296 301 300 298 297 297 297 298 298 297 295 294 282 264 256 247 235 223 216 214 216 217 214 207 204 203 201 197 194 194 196 197 198 198 193 187 185 183 182 180 180 180 179 178 174 169 166 171 179 181 180 181 182 188 197 204 210 214
78 74 76 75 66 61 58 55 59 69 66 3 343 332 324 301 286 283 303 307 311 313 313 316 317 310 303 305 312 314 309 304 301 299 300 302 300 298 296 290 280 268 251 236 228 224 219 215 215 212 206 201 201 203 202 197 193 193 194 197 197 194 189 185 182 181 181 180 178 176 174 172 168 168 175 180 181 181 181 180 185 198 207 211 214
76 71 72 81 83 79 83 89 86 86 91 86 72 80 70 19 2 30 21 21 35 29 17 17 12 3 359 356 350 345 339 332 324 317 312 312 311 308 301 293 287 279 259 240 234 233 228 221 217 213 209 204 202 201 202 199 194 191 192 195 195 192 187 182 179 178 177 177 176 173 170 168 168 171 178 181 180 182 184 180 181 196 209 210 210
81 70 65 71 81 80 78 80 80 80 83 87 87 87 87 85 83 73 48 45 52 39 40 57 40 14 9 8 3 357 354 350 347 344 341 337 331 324 318 306 294 284 266 246 239 237 235 230 224 217 212 208 204 201 200 199 196 192 191 192 191 187 182 179 178 176 172 170 171 171 169 168 168 173 180 182 178 181 189 188 185 194 206 207 207
84 78 70 64 67 69 63 61 66 70 72 75 81 86 84 78 78 81 74 59 38 19 31 40 20 11 14 7 358 357 357 355 355 353 349 346 339 328 320 310 294 283 271 255 245 241 239 237 232 224 215 210 207 203 200 198 196 193 190 188 186 182 179 177 177 173 168 167 169 169 169 169 171 175 179 180 177 181 190 196 196 197 200 201 204
60 68 69 62 64 74 71 63 63 72 81 83 82 88 88 72 51 46 54 49 28 9 20 19 2 13 29 9 354 353 354 354 356 355 348 342 332 318 307 297 285 279 274 265 255 248 244 243 239 231 221 213 208 204 201 197 194 191 189 187 184 180 176 175 174 171 167 167 167 166 167 170 174 175 175 177 179 183 189 198 204 202 197 196 200
73 72 62 51 60 80 86 82 86 96 108 102 85 68 60 51 39 26 27 35 23 1 2 9 6 14 22 5 351 349 350 349 348 347 344 339 330 317 309 301 289 278 272 269 265 258 251 248 245 239 231 220 212 206 200 194 190 189 188 185 180 175 171 169 168 168 166 165 164 164 167 171 174 174 173 175 180 186 191 199 205 204 195 192 197
96 91 74 50 61 85 80 73 90 94 79 74 70 56 43 34 26 15 7 10 10 1 357 359 4 17 25 8 352 347 346 343 341 339 337 335 332 328 323 315 303 289 278 272 270 265 258 253 248 243 236 226 215 208 200 191 187 185 183 178 172 168 166 164 162 162 161 160 161 164 167 170 173 174 174 175 180 189 195 197 200 201 196 194 198
74 78 65 28 25 76 82 58 53 57 46 35 26 31 36 25 10 7 11 7 2 2 358 353 355 6 10 360 354 351 344 335 335 336 333 332 332 332 330 327 319 305 289 275 268 266 263 258 251 245 238 227 214 204 194 188 184 180 174 169 166 163 161 159 157 156 156 157 159 163 167 170 171 172 174 180 189 193 192 191 193 197 200 197 195
50 60 54 24 17 35 73 58 41 36 30 16 1 1 9 359 343 344 354 353 351 352 349 343 343 344 335 335 344 350 342 332 333 333 330 330 332 333 334 335 335 328 311 287 272 270 269 263 255 248 239 225 209 196 188 182 177 171 166 164 162 159 155 154 152 152 153 155 158 162 167 171 170 169 174 185 191 187 184 186 191 196 200 199 194
49 49 45 31 26 33 48 46 35 30 26 16 6 360 356 347 340 341 345 346 344 340 333 329 331 329 316 316 335 346 338 332 335 334 331 333 334 334 338 342 344 344 338 321 302 290 277 262 255 250 234 214 197 186 178 173 167 163 161 159 155 151 148 148 148 149 151 155 159 162 166 169 170 170 174 180 179 176 180 188 191 193 196 199 198
55 51 47 43 38 36 35 29 23 24 21 11 3 357 348 339 337 339 340 341 341 336 330 327 329 329 321 319 337 344 335 332 336 335 332 334 336 338 342 344 347 350 351 355 8 7 330 258 234 231 214 194 178 167 164 165 162 159 156 152 147 144 144 145 146 148 149 152 157 161 164 166 167 168 171 172 173 177 183 186 189 192 195 198 200
58 56 52 51 47 44 41 33 27 24 19 10 6 5 359 351 350 347 343 344 343 337 330 326 325 329 330 329 331 334 333 333 335 335 333 334 337 341 343 343 345 353 359 10 35 50 57 69 79 73 69 102 135 141 142 141 135 131 130 129 130 134 138 142 145 148 149 151 154 158 161 162 163 165 169 173 177 181 183 184 188 193 195 196 200
51 53 54 53 51 51 49 43 37 34 28 21 19 18 13 8 4 357 353 354 350 337 330 332 333 335 335 331 329 333 337 335 334 338 341 339 337 341 346 345 344 352 4 16 41 65 76 82 86 87 82 80 88 101 111 116 118 121 123 125 127 131 136 141 146 149 150 151 153 155 158 160 164 167 172 176 179 182 184 186 189 193 195 197 202
50 50 52 53 52 51 49 46 43 41 37 31 27 24 20 16 11 6 3 3 359 348 342 344 344 343 343 342 341 345 347 343 340 344 347 344 342 346 351 351 350 353 0 11 30 61 86 98 104 109 111 110 110 113 119 126 131 133 134 136 138 140 143 147 151 153 153 153 154 157 159 163 167 172 175 177 179 183 186 187 189 193 198 201 205
53 51 51 53 52 50 47 46 45 43 40 36 33 30 25 21 17 14 11 10 7 1 357 357 356 352 349 347 348 349 348 342 338 340 343 347 352 356 357 358 0 5 8 13 29 56 80 97 108 114 118 122 125 126 128 131 134 135 137 140 144 147 151 154 155 156 156 157 159 161 162 165 170 174 175 176 179 184 187 189 190 194 199 202 206
51 50 49 48 48 46 45 46 46 45 44 42 39 36 32 27 22 17 14 15 15 12 7 8 7 3 357 353 351 349 347 342 336 334 340 353 2 6 7 8 12 21 29 37 59 81 91 98 108 115 118 122 125 125 127 132 137 141 144 147 150 155 158 158 157 158 158 160 163 164 165 167 171 174 175 176 178 182 186 191 195 197 198 200 205
47 47 44 43 43 43 43 43 43 42 41 40 40 38 35 31 27 21 16 15 17 16 15 16 14 8 5 4 0 355 352 350 345 340 346 1 11 16 19 18 21 35 49 56 68 89 101 108 116 122 126 130 133 136 139 144 148 151 151 152 156 160 161 160 159 160 160 160 162 164 165 167 170 173 174 176 179 182 186 191 197 201 201 201 203
46 45 43 42 41 41 42 43 43 42 40 39 40 39 36 33 32 27 21 20 19 17 16 16 14 11 11 13 11 9 8 8 8 7 7 11 19 24 26 27 30 40 53 61 70 85 98 108 117 125 130 134 138 143 147 150 152 154 155 156 158 159 159 159 159 159 159 159 160 163 165 167 168 169 170 173 179 186 191 193 197 201 204 205 205
44 43 43 42 41 40 41 43 45 46 44 43 42 41 39 37 36 32 28 25 24 22 21 20 18 15 14 12 12 14 17 21 24 28 31 34 37 37 33 30 32 36 47 64 79 88 95 103 114 122 126 129 134 140 145 149 154 157 157 157 157 157 157 158 157 157 156 157 158 160 163 165 166 168 171 175 182 190 196 199 202 203 206 208 208
Height
736 740 743 747 750 753 757 760 763 767 770 773 775 777 779 781 783 786 787 790 791 793 795 796 799 800 802 804 805 807 809 811 813 815 816 818 819 820 822 823 824 826 828 829 829 830 830 831 833 834 835 836 837 838 839 840 841 841 842 843 844 845 846 846 847 846 847 847 848 848 849 850 851 852 853 853 854 854 855 855 855 855 855 856 856
730 733 737 741 744 748 752 755 759 762 765 768 771 773 775 777 780 782 784 785 787 789 791 793 795 797 799 801 802 804 806 808 810 811 813 815 816 818 819 820 821 823 824 826 826 827 828 828 829 831 833 834 835 836 837 838 839 839 840 841 841 842 843 845 845 845 845 846 847 848 848 849 850 850 851 852 852 853 853 854 854 854 854 855 855
724 727 731 735 739 743 747 751 754 757 760 763 766 768 770 773 775 777 779 781 783 785 787 789 792 793 795 797 799 801 803 804 806 808 810 812 813 815 816 817 818 819 820 822 823 824 825 826 827 828 829 831 833 834 834 835 836 837 838 838 839 840 841 842 843 844 843 844 845 846 847 848 849 849 850 851 851 851 852 852 853 853 853 853 853
719 723 726 730 734 738 742 745 749 752 755 757 760 763 766 768 771 773 775 777 779 781 783 786 788 790 792 794 795 797 799 800 802 804 806 808 810 811 813 814 815 816 817 818 820 821 822 823 824 824 826 827 829 831 832 833 834 835 835 836 837 838 839 840 841 842 842 842 843 844 844 846 847 848 848 849 849 850 850 851 851 851 851 851 851
714 717 721 725 729 732 735 739 742 745 748 751 754 757 760 763 765 768 770 772 775 777 779 782 784 785 787 789 791 793 795 796 798 800 802 804 805 808 810 811 812 813 814 815 816 817 818 819 820 821 822 824 825 827 828 830 831 832 833 834 835 836 837 838 839 840 841 840 841 842 843 843 845 846 847 847 848 848 849 849 849 849 850 850 850
709 713 717 720 723 726 729 732 735 738 742 745 748 752 754 757 760 763 765 767 770 772 775 777 779 780 782 784 786 788 790 792 794 796 798 800 801 803 805 807 809 809 810 811 812 813 814 815 817 818 818 819 821 823 824 826 828 829 830 831 832 834 835 836 837 838 839 839 839 840 841 842 843 844 845 845 846 846 847 847 847 847 848 848 848
704 708 712 715 718 721 723 727 730 733 736 739 743 746 749 752 755 758 760 762 765 767 769 772 774 775 777 779 782 784 786 788 789 791 794 796 797 799 801 803 804 805 806 807 808 809 810 811 813 813 814 815 816 818 820 822 824 826 827 829 830 831 832 833 834 835 836 837 837 838 838 839 841 842 843 843 844 844 845 845 845 845 845 846 846
700 703 707 710 713 716 719 722 725 728 732 735 738 741 744 747 750 753 756 758 760 762 764 767 769 771 773 775 777 779 781 783 785 786 789 791 793 794 796 798 799 801 802 803 804 805 806 807 808 809 810 811 812 814 815 818 820 822 824 826 827 828 829 831 832 833 834 834 835 835 836 837 838 839 840 841 842 842 842 842 842 842 842 843 843
695 699 702 705 708 711 715 719 721 724 728 731 734 737 740 743 746 749 752 753 756 758 760 763 765 767 769 771 773 775 776 777 779 781 783 786 788 790 791 793 794 796 798 799 800 801 802 803 804 804 805 806 808 810 812 813 815 818 820 822 824 825 826 828 828 830 831 831 832 833 833 834 835 836 837 838 838 839 839 840 840 839 840 840 841
691 695 697 700 703 707 712 715 718 721 724 727 730 733 736 740 742 745 747 750 752 754 757 759 761 762 764 766 768 769 770 771 773 775 778 781 783 785 787 789 790 792 793 795 796 797 798 799 800 801 802 803 805 807 809 810 811 813 815 817 819 821 823 824 825 826 827 828 829 830 830 831 832 833 834 834 835 836 837 838 837 837 838 838 838
687 691 693 696 700 704 707 711 714 717 720 723 726 729 733 735 738 740 743 746 748 751 753 755 757 758 760 761 763 763 764 765 767 770 773 776 778 781 783 785 786 788 789 790 792 793 794 795 796 797 798 799 801 803 806 807 808 810 812 813 815 817 818 820 821 822 824 824 825 826 826 827 828 829 830 831 833 834 835 835 835 836 836 836 836
683 687 690 694 698 700 703 706 709 713 716 719 723 726 729 732 734 737 739 741 744 746 748 750 752 754 755 756 758 758 759 760 761 764 767 770 773 776 778 780 781 783 784 785 787 788 789 790 791 793 794 795 797 800 802 804 805 806 808 809 811 813 814 816 817 819 820 821 821 822 823 824 825 826 827 828 829 831 832 833 834 834 834 834 834
679 683 687 691 693 696 699 701 705 708 711 715 719 722 726 728 730 733 735 737 740 742 743 745 747 749 750 751 753 753 754 755 756 758 761 764 767 771 773 775 776 778 779 780 782 783 783 784 786 788 789 790 792 795 796 799 801 803 805 806 807 809 811 812 814 815 816 817 818 818 819 820 821 822 823 825 826 827 829 830 831 832 832 832 832
676 680 684 687 689 692 695 697 700 704 707 711 715 718 721 723 725 728 730 733 735 736 738 740 741 743 745 746 748 748 749 750 751 753 756 758 762 765 768 770 771 772 773 775 777 777 777 778 779 781 783 784 786 789 791 793 796 798 801 802 804 805 806 808 810 811 813 813 814 815 816 817 818 819 821 822 823 824 825 827 829 830 830 830 831
673 676 680 683 686 689 691 693 697 700 703 707 709 712 714 716 719 722 725 727 729 731 733 735 736 738 740 742 743 743 744 746 747 748 750 753 756 759 762 764 765 766 767 769 771 772 772 772 773 775 777 778 779 782 785 788 790 793 796 798 799 801 802 803 805 807 808 809 811 812 813 814 816 817 818 820 821 822 823 825 826 828 829 829 829
670 673 675 679 682 685 688 691 694 696 699 702 703 705 708 710 714 717 720 723 725 726 728 730 731 733 735 736 737 737 738 740 741 742 744 747 751 754 756 758 759 760 761 763 765 766 766 767 768 768 770 771 772 775 780 783 785 788 791 793 795 796 797 798 799 802 804 806 807 809 810 811 813 814 816 817 818 820 822 823 825 826 827 828 828
667 669 671 675 679 682 685 688 690 693 695 697 699 701 704 707 710 714 716 718 719 721 723 724 726 728 729 730 731 732 733 735 736 737 739 742 745 748 750 753 754 755 756 757 759 759 760 762 764 764 764 765 767 769 774 778 781 782 785 788 790 791 792 794 796 798 800 802 804 806 808 809 810 811 813 814 816 818 820 821 822 824 825 826 826
663 665 668 672 676 679 682 684 687 689 691 693 695 697 700 704 706 709 711 713 714 716 718 720 722 723 724 725 726 727 729 730 731 733 735 737 740 742 745 747 749 750 751 752 753 753 754 756 759 759 759 759 761 764 768 772 775 777 779 782 785 786 787 790 792 794 797 799 801 803 805 807 808 809 810 812 814 815 817 818 820 821 822 822 821
660 663 666 669 672 675 678 681 683 685 687 689 691 694 697 700 703 705 707 709 711 713 714 716 717 717 719 720 721 722 724 724 726 727 729 732 734 737 740 743 743 744 745 747 749 748 749 751 752 754 754 754 755 757 761 765 768 771 774 777 779 780 782 785 787 788 791 795 798 800 802 804 806 807 808 809 811 813 815 816 817 818 818 817 817
659 662 665 667 670 672 674 677 679 681 683 686 689 692 695 697 699 701 703 705 707 709 710 711 711 713 714 715 716 717 717 718 720 721 723 726 728 731 735 737 737 737 739 742 744 743 744 745 745 747 749 749 749 750 753 757 761 765 768 770 772 774 777 780 782 782 786 790 794 797 799 801 803 804 805 807 809 811 813 814 815 815 816 816 816
658 660 662 664 667 669 671 673 675 678 681 684 687 689 691 693 695 697 699 701 702 704 705 706 707 708 709 710 711 711 712 713 714 715 717 719 721 725 728 729 730 733 735 736 737 736 737 738 738 739 742 744 744 743 746 750 755 759 761 762 766 769 773 775 776 778 783 787 790 793 796 798 800 802 803 804 806 807 810 811 812 813 814 814 814
656 659 660 662 664 666 668 671 673 676 678 681 683 685 687 690 692 693 695 697 698 700 701 702 703 704 704 705 706 706 707 709 710 711 712 713 715 718 720 721 725 728 730 729 728 728 728 730 731 731 733 736 738 738 740 744 749 752 754 756 760 765 768 770 772 775 779 783 786 789 791 793 795 797 798 799 801 803 805 807 809 810 811 812 812
655 657 659 661 662 664 666 668 671 673 675 677 680 682 684 687 688 690 692 694 695 697 698 699 701 701 701 701 701 702 703 704 706 707 707 709 711 712 713 716 719 722 723 722 720 720 721 722 724 725 727 730 733 733 735 738 742 746 749 752 756 760 764 767 768 771 774 778 781 783 785 786 788 789 790 792 794 798 801 803 805 807 808 809 810
654 656 658 660 661 663 665 667 669 671 673 675 678 680 682 684 686 688 690 691 693 694 695 697 698 698 698 698 698 698 700 701 702 703 703 704 706 707 709 711 713 715 717 716 716 716 716 716 718 719 722 725 727 728 730 733 736 741 745 748 751 755 759 761 763 765 769 772 775 778 779 780 781 782 783 784 786 790 795 799 802 803 805 807 807
653 655 657 659 661 662 664 666 668 670 672 674 675 677 680 681 683 685 687 689 690 691 692 693 694 695 695 695 694 695 697 698 699 698 698 699 700 701 703 705 707 711 712 712 713 715 714 715 716 716 717 720 722 724 726 729 732 736 741 744 747 749 752 754 757 760 764 767 771 774 776 778 780 781 783 783 783 785 791 796 798 799 802 804 805
654 656 657 658 659 661 663 664 667 669 670 672 673 675 677 679 681 683 684 686 687 688 689 690 691 691 692 692 692 693 694 694 695 695 694 694 695 696 698 701 704 707 708 709 711 712 713 715 717 716 715 717 720 721 723 725 729 733 736 739 741 742 744 747 750 754 758 762 766 770 773 776 779 782 784 784 783 784 789 793 795 797 799 801 803
655 656 657 657 658 660 662 663 664 666 669 670 671 673 675 677 678 680 681 682 683 685 687 688 688 689 689 690 690 691 692 692 691 691 691 690 690 692 695 697 700 703 704 705 706 708 711 714 716 715 716 717 718 719 720 723 725 728 730 732 734 736 737 740 743 747 752 756 760 764 767 771 775 779 781 782 783 784 788 791 793 794 796 799 801
655 656 656 657 658 659 661 662 663 664 665 667 669 670 672 675 676 677 678 680 681 682 683 684 685 686 687 688 688 689 689 689 689 689 690 689 689 690 691 693 696 697 698 699 702 706 710 712 712 714 716 715 716 717 719 720 722 723 724 727 730 732 734 737 741 744 748 752 756 760 763 767 770 773 776 779 782 784 786 790 791 792 794 796 798
654 655 656 656 657 659 660 661 662 663 663 665 667 668 670 671 673 674 676 678 679 680 680 681 683 684 685 685 686 686 686 686 687 688 689 689 688 687 687 688 690 690 692 694 697 701 704 704 706 709 712 711 709 710 712 714 717 719 721 723 726 728 729 731 735 739 743 747 751 755 759 762 765 767 771 775 779 781 784 788 790 790 792 793 795
653 654 654 655 656 657 658 659 660 662 663 664 665 667 668 669 671 672 674 676 677 677 678 679 680 682 682 683 684 684 684 684 684 685 686 687 687 686 685 684 684 684 685 688 691 696 699 699 698 701 704 706 705 705 706 708 712 715 718 720 721 722 723 725 728 733 738 742 745 749 753 756 759 762 766 771 775 778 781 784 787 788 789 790 791
655 655 656 657 657 657 657 657 659 662 664 664 665 666 667 669 670 671 673 674 675 676 677 677 678 679 680 680 680 681 681 682 682 682 682 683 684 684 684 684 682 681 681 682 685 689 692 692 692 694 697 701 704 705 705 707 710 713 714 715 715 715 715 718 721 726 732 736 740 744 747 749 753 757 761 768 773 775 777 781 785 786 787 788 788
659 659 660 661 660 660 660 660 661 663 665 666 667 668 668 669 670 672 673 674 674 675 676 677 678 678 679 679 678 678 677 677 678 678 678 679 679 679 680 681 680 680 680 680 679 678 679 680 682 684 687 690 694 697 696 696 700 704 708 710 710 708 707 708 711 718 723 728 733 737 740 743 747 752 758 765 769 771 773 777 781 783 785 785 785
662 663 664 664 664 665 665 665 666 667 668 669 670 671 671 672 672 672 673 674 674 675 675 676 677 678 678 679 679 678 678 677 676 675 675 675 675 675 674 674 674 675 677 676 673 671 670 670 671 673 675 677 680 682 682 682 684 688 695 700 701 701 701 702 705 711 716 720 725 730 734 738 742 747 754 761 764 765 768 772 776 779 781 782 782
665 666 667 667 668 668 668 669 670 671 672 673 673 673 674 674 674 674 674 674 674 675 676 676 678 678 679 679 679 679 679 678 677 676 674 673 672 671 669 667 666 668 670 670 668 665 664 663 661 662 662 663 665 668 670 671 672 674 679 685 690 694 697 700 702 705 709 715 720 725 729 733 738 744 751 757 758 759 763 767 771 775 777 777 778
668 669 670 670 670 671 671 671 672 672 673 674 674 674 675 675 675 675 675 675 675 676 676 677 678 679 679 679 678 678 677 676 675 674 673 671 670 668 666 664 662 661 662 662 661 659 657 656 654 652 651 651 652 654 656 659 660 662 666 673 680 685 690 695 698 700 703 709 716 721 725 729 734 741 748 751 753 755 759 762 766 770 772 773 773
669 670 671 672 672 672 673 673 674 674 675 675 675 676 676 676 676 676 675 676 676 676 676 678 678 678 679 678 677 677 676 674 673 672 670 669 668 666 665 663 661 658 656 654 653 651 649 647 645 642 640 639 639 639 641 643 647 651 655 661 668 673 677 683 690 694 698 704 711 717 722 726 731 738 744 746 748 752 756 759 762 765 767 769 770
671 672 672 673 674 674 675 676 676 676 676 677 677 677 677 677 676 676 675 676 676 676 677 678 678 678 678 678 677 676 674 672 671 670 668 667 666 664 662 661 658 655 651 648 646 644 641 638 635 633 630 626 624 625 627 630 635 641 646 650 655 660 665 672 680 686 691 699 706 712 717 723 729 734 738 740 744 749 753 757 759 760 762 764 766
674 675 675 676 676 676 677 677 677 677 677 677 677 677 676 676 676 675 675 676 677 677 677 677 677 677 678 678 677 675 673 672 670 669 668 666 664 662 660 658 655 652 646 642 640 637 634 630 628 626 623 619 617 617 618 620 625 632 638 644 649 655 661 668 675 681 687 694 701 708 713 719 725 729 732 736 740 745 749 753 755 757 759 761 763
675 676 677 677 677 677 678 677 677 677 677 677 677 676 676 676 676 676 676 677 677 677 677 677 677 678 679 679 678 676 675 673 671 669 667 665 663 661 658 655 651 646 641 637 634 631 627 623 620 618 616 614 613 612 613 615 620 626 634 640 646 651 657 663 670 677 684 691 698 705 712 717 723 726 728 732 737 742 745 748 751 753 756 758 761
676 677 678 678 678 678 678 678 678 678 677 677 677 676 676 677 677 677 677 677 677 678 678 678 678 679 680 680 679 678 676 674 672 670 668 665 662 659 656 651 646 640 635 631 629 624 620 616 613 611 609 609 608 609 611 614 618 623 629 635 641 646 652 658 666 674 681 689 697 705 711 717 720 723 725 730 735 738 741 744 748 751 753 756 758
679 680 680 679 678 677 677 678 679 679 679 678 677 676 677 677 677 676 676 676 676 677 678 678 679 680 680 679 679 678 676 674 672 671 668 665 662 658 654 650 645 639 632 627 623 618 614 610 608 606 604 604 605 606 608 611 615 620 625 632 637 643 648 654 663 672 680 689 697 704 711 715 718 720 723 728 732 735 739 742 745 749 751 753 756
682 682 682 681 680 679 679 680 680 680 680 680 679 679 679 678 677 677 676 676 676 676 676 677 678 678 678 678 677 676 675 673 672 671 668 665 662 659 654 650 645 640 634 628 621 614 608 605 604 602 600 601 603 605 607 610 613 617 624 630 634 640 646 653 662 671 680 689 697 704 709 713 715 718 722 727 730 733 737 740 743 746 749 751 753
684 684 684 684 684 683 683 682 681 681 681 681 681 681 680 680 679 678 677 677 677 677 677 676 677 677 676 676 675 675 674 673 672 671 668 665 662 659 655 651 646 642 637 632 623 613 605 601 601 601 599 598 599 602 609 615 617 618 622 626 630 636 645 655 664 672 680 688 695 702 707 711 714 717 721 725 728 732 735 738 741 744 746 749 751
684 685 686 686 686 685 685 684 684 683 683 683 682 682 681 681 680 679 679 679 679 679 679 678 677 676 676 675 675 674 673 673 672 670 668 666 663 660 657 653 649 644 640 636 628 618 609 606 606 606 605 604 602 603 609 619 623 623 626 631 635 641 649 658 666 674 681 687 694 700 705 709 713 717 721 724 728 731 733 736 739 741 744 746 748
685 686 687 687 687 687 687 687 686 686 685 684 684 683 683 683 682 682 682 682 681 681 680 679 678 677 677 676 675 674 673 672 671 670 668 667 664 661 659 656 652 648 644 640 634 627 620 615 613 613 615 617 617 616 619 627 633 635 638 644 649 654 660 666 672 678 683 687 693 699 704 709 713 717 721 724 727 729 731 734 737 739 741 743 746
688 688 688 689 689 689 689 688 687 686 686 686 686 686 686 686 686 686 685 685 684 683 682 681 681 680 678 677 676 675 673 672 671 670 669 668 666 663 660 658 655 652 650 646 642 637 631 626 622 620 622 625 629 631 635 640 645 647 650 653 658 663 668 672 677 681 684 688 694 699 704 709 713 717 720 723 725 728 730 732 735 737 740 742 744
692 691 691 691 691 691 690 689 688 688 689 689 690 690 690 690 690 689 689 688 688 687 686 684 684 683 681 680 679 677 676 674 673 672 671 669 667 665 663 660 658 656 654 652 649 645 641 637 633 631 630 632 635 638 642 646 650 655 659 661 665 670 674 677 680 683 687 690 695 700 705 709 713 717 719 722 724 726 728 730 733 735 738 740 742
695 695 694 694 694 693 692 691 691 691 692 692 693 693 694 694 694 693 692 691 691 690 689 688 687 686 685 683 682 680 678 677 675 673 672 670 669 667 665 663 661 659 658 657 655 651 649 647 645 643 642 641 642 645 649 653 657 661 666 668 671 674 677 679 682 685 689 693 697 701 705 709 713 715 718 720 722 724 726 729 731 734 736 738 740
699 699 698 698 697 696 695 694 695 695 695 695 696 696 697 697 697 697 697 696 695 693 692 690 689 688 687 686 684 682 680 678 677 675 674 672 670 669 667 665 664 663 662 660 659 657 655 654 653 653 652 651 651 652 655 659 662 666 670 672 674 676 678 681 684 687 691 695 699 703 706 709 712 714 716 718 720 723 725 728 730 732 735 737 739
702 701 701 701 700 700 699 699 699 699 699 699 699 699 700 701 701 702 701 700 698 696 694 692 692 691 690 688 687 685 683 681 679 678 676 674 673 671 669 668 667 666 665 664 663 662 660 660 660 660 660 659 659 660 662 664 667 670 672 674 676 678 681 684 687 690 694 697 701 704 706 709 711 713 715 717 719 721 724 726 729 731 733 735 737
705 704 704 704 704 704 703 703 703 703 703 703 703 703 704 704 705 705 704 703 701 699 697 695 695 694 693 692 691 689 687 685 683 680 678 676 675 673 671 671 670 669 669 668 667 666 666 665 666 666 666 666 667 668 669 670 672 673 674 676 679 681 684 687 690 693 696 699 702 704 706 708 710 712 713 715 718 720 722 725 727 729 731 733 735